Tracking 29494 objects as of 7-Sep-2024
HD Live streaming from Space Station
objects crossing your sky now

FENGYUN 1C DEB

Track FENGYUN 1C DEB now!
10-day predictions


NORAD ID: 37441
Int'l Code: 1999-025EHK
Perigee: 828.9 km
Apogee: 1,611.6 km
Inclination: 99.2 °
Period: 109.7 minutes
Semi major axis: 7591 km
RCS: 0.0082 m2 (small)
Launch date: May 10, 1999
Source: People's Republic of China (PRC)
Launch site: Taiyaun Space Center, China (TSC)

Note: This is SATELLITE DEBRIS
Your satellite tracking list
Your tracking list is empty




NASA's NSSDC Master Catalog

Two Line Element Set (TLE):
1 37441U 99025EHK 24241.96994975  .00002785  00000-0  40073-2 0  9993
2 37441  99.1835 144.7767 0515475  95.6065 270.4043 13.12600666759912
Source of the keplerian elements: AFSPC